Location: Castle Hill Houses
(40.8186°N, 73.8497°W)
Time: 01:46:37
(UTC+00:00)

H-2A R/B - Pass Details

Date: 26 January 2020
Orbit: 503 x 540 km, 97.3° (Epoch: 06 February)

Event Time Altitude Azimuth Distance (km) Brightness Sun altitude
Rises 11:21:20 0° 8° (N) 2,700 6.3 -9.7°
Reaches altitude 10° 11:23:29 10° 4° (N) 1,801 5.3 -9.3°
Maximum altitude 11:27:19 61° 285° (WNW) 611 2.7 -8.6°
Drops below altitude 10° 11:31:06 10° 205° (SSW) 1,769 5.3 -7.9°
Sets 11:33:12 0° 201° (SSW) 2,648 6.3 -7.5°
